QPF
0.02 0.02 0.03 0.03 0.03 0.02 0.03 0.03 0.03 0.02 0.01 0.01 0.01 0.00 0.00 0.00 0.00 0.00 0.00 0.00 0.00 0.00 0.00 0.00 0.00 0.00 0.00 0.00 0.00 0.00 0.00 0.00 0.00 0.00 0.00 0.00 0.00 0.00 0.00 0.00 0.00 0.00 0.00 0.00
0.03 0.02 0.02 0.02 0.01 0.02 0.02 0.02 0.01 0.01 0.01 0.00 0.00 0.00 0.00 0.00 0.00 0.00 0.00 0.00 0.00 0.00 0.00 0.00 0.00 0.00 0.00 0.00 0.00 0.00 0.00 0.00 0.00 0.00 0.00 0.00 0.00 0.00 0.00 0.00 0.00 0.00 0.00 0.00
0.04 0.02 0.03 0.02 0.01 0.01 0.01 0.01 0.01 0.02 0.01 0.01 0.00 0.00 0.01 0.01 0.00 0.00 0.00 0.00 0.00 0.00 0.00 0.00 0.00 0.00 0.00 0.00 0.00 0.00 0.00 0.00 0.00 0.00 0.00 0.00 0.00 0.00 0.00 0.00 0.00 0.00 0.00 0.00
0.08 0.04 0.04 0.01 0.01 0.01 0.01 0.01 0.01 0.01 0.01 0.01 0.00 0.00 0.00 0.01 0.01 0.00 0.00 0.00 0.00 0.00 0.00 0.00 0.00 0.00 0.00 0.00 0.00 0.00 0.00 0.00 0.00 0.00 0.00 0.00 0.00 0.00 0.00 0.00 0.00 0.00 0.00 0.00
0.08 0.06 0.03 0.01 0.00 0.01 0.01 0.01 0.01 0.01 0.01 0.00 0.00 0.00 0.00 0.00 0.01 0.00 0.00 0.00 0.00 0.00 0.00 0.00 0.00 0.00 0.00 0.00 0.00 0.00 0.00 0.00 0.00 0.00 0.00 0.00 0.00 0.00 0.00 0.00 0.00 0.00 0.00 0.00
0.08 0.07 0.05 0.02 0.00 0.00 0.01 0.03 0.01 0.00 0.00 0.00 0.00 0.01 0.01 0.00 0.01 0.00 0.00 0.00 0.00 0.00 0.00 0.00 0.00 0.00 0.00 0.00 0.00 0.00 0.00 0.00 0.00 0.00 0.00 0.00 0.00 0.00 0.00 0.00 0.00 0.00 0.00 0.00
0.06 0.06 0.05 0.02 0.00 0.01 0.04 0.06 0.03 0.01 0.01 0.01 0.01 0.01 0.01 0.01 0.00 0.00 0.00 0.00 0.00 0.00 0.00 0.00 0.00 0.00 0.00 0.00 0.00 0.00 0.00 0.00 0.00 0.00 0.00 0.00 0.00 0.00 0.00 0.00 0.00 0.00 0.00 0.00
0.05 0.06 0.06 0.02 0.02 0.04 0.06 0.04 0.02 0.02 0.02 0.01 0.01 0.01 0.01 0.01 0.00 0.00 0.00 0.00 0.00 0.00 0.00 0.00 0.00 0.00 0.00 0.00 0.00 0.00 0.00 0.00 0.00 0.00 0.00 0.00 0.00 0.00 0.00 0.00 0.00 0.00 0.00 0.00
0.06 0.08 0.05 0.02 0.02 0.02 0.03 0.02 0.01 0.02 0.02 0.01 0.01 0.01 0.01 0.01 0.00 0.00 0.00 0.00 0.00 0.00 0.00 0.00 0.00 0.00 0.00 0.00 0.00 0.00 0.00 0.00 0.00 0.00 0.00 0.00 0.00 0.00 0.00 0.00 0.00 0.00 0.00 0.00
0.03 0.03 0.02 0.02 0.02 0.02 0.01 0.01 0.02 0.02 0.02 0.02 0.01 0.01 0.01 0.01 0.01 0.00 0.00 0.00 0.00 0.00 0.00 0.00 0.00 0.00 0.00 0.00 0.00 0.00 0.00 0.00 0.00 0.01 0.00 0.00 0.00 0.00 0.00 0.00 0.00 0.00 0.00 0.00
0.02 0.02 0.02 0.03 0.02 0.02 0.02 0.02 0.02 0.02 0.02 0.02 0.02 0.01 0.01 0.01 0.01 0.01 0.01 0.01 0.01 0.00 0.00 0.00 0.00 0.00 0.00 0.00 0.00 0.00 0.00 0.00 0.00 0.01 0.00 0.00 0.00 0.00 0.00 0.00 0.00 0.00 0.00 0.00
0.04 0.02 0.02 0.02 0.01 0.01 0.01 0.01 0.01 0.02 0.03 0.03 0.03 0.02 0.02 0.01 0.01 0.01 0.01 0.01 0.01 0.01 0.01 0.01 0.00 0.00 0.00 0.00 0.00 0.01 0.01 0.01 0.01 0.01 0.01 0.00 0.00 0.01 0.01 0.01 0.01 0.01 0.00 0.00
0.02 0.02 0.01 0.01 0.01 0.02 0.01 0.01 0.01 0.01 0.01 0.01 0.01 0.01 0.01 0.01 0.01 0.01 0.01 0.01 0.00 0.00 0.00 0.00 0.00 0.00 0.00 0.00 0.00 0.00 0.01 0.01 0.01 0.01 0.01 0.01 0.01 0.01 0.01 0.01 0.01 0.01 0.00 0.00
0.01 0.01 0.01 0.01 0.01 0.02 0.01 0.01 0.01 0.01 0.01 0.01 0.00 0.00 0.00 0.01 0.01 0.01 0.01 0.01 0.00 0.00 0.00 0.00 0.00 0.00 0.00 0.00 0.00 0.00 0.00 0.01 0.01 0.01 0.01 0.01 0.01 0.01 0.01 0.01 0.01 0.01 0.01 0.01
0.00 0.01 0.01 0.01 0.01 0.01 0.01 0.01 0.01 0.01 0.01 0.01 0.01 0.00 0.01 0.01 0.01 0.01 0.01 0.01 0.01 0.01 0.00 0.00 0.00 0.00 0.00 0.00 0.00 0.00 0.00 0.00 0.01 0.01 0.01 0.01 0.01 0.01 0.01 0.01 0.01 0.01 0.01 0.01
0.01 0.01 0.01 0.01 0.01 0.01 0.01 0.01 0.01 0.01 0.01 0.02 0.02 0.01 0.01 0.00 0.00 0.01 0.01 0.01 0.00 0.00 0.00 0.00 0.00 0.00 0.00 0.00 0.00 0.00 0.00 0.01 0.01 0.01 0.01 0.01 0.01 0.01 0.01 0.01 0.01 0.01 0.01 0.01
0.02 0.02 0.02 0.02 0.02 0.01 0.01 0.01 0.01 0.01 0.01 0.02 0.02 0.01 0.01 0.01 0.01 0.00 0.00 0.00 0.00 0.00 0.00 0.00 0.00 0.00 0.00 0.00 0.00 0.00 0.01 0.01 0.01 0.01 0.01 0.01 0.01 0.01 0.01 0.01 0.01 0.01 0.01 0.01
0.02 0.03 0.02 0.02 0.02 0.02 0.01 0.02 0.02 0.02 0.01 0.01 0.01 0.01 0.01 0.01 0.01 0.00 0.00 0.00 0.00 0.00 0.00 0.00 0.00 0.00 0.00 0.00 0.00 0.00 0.01 0.01 0.01 0.01 0.01 0.01 0.01 0.01 0.01 0.01 0.01 0.01 0.01 0.01
0.01 0.03 0.03 0.03 0.02 0.02 0.02 0.02 0.02 0.02 0.02 0.02 0.01 0.01 0.01 0.01 0.00 0.00 0.00 0.00 0.00 0.00 0.00 0.00 0.00 0.00 0.00 0.00 0.00 0.00 0.01 0.01 0.01 0.01 0.01 0.01 0.02 0.01 0.01 0.01 0.01 0.01 0.01 0.01
0.01 0.02 0.03 0.03 0.04 0.03 0.03 0.03 0.03 0.02 0.02 0.02 0.01 0.01 0.01 0.01 0.01 0.00 0.00 0.00 0.00 0.00 0.00 0.00 0.00 0.00 0.00 0.00 0.01 0.00 0.01 0.01 0.01 0.01 0.01 0.01 0.01 0.01 0.01 0.01 0.02 0.02 0.02 0.02
0.01 0.01 0.02 0.03 0.03 0.04 0.04 0.04 0.03 0.02 0.02 0.01 0.01 0.01 0.01 0.01 0.01 0.00 0.00 0.00 0.00 0.00 0.00 0.00 0.00 0.00 0.00 0.00 0.01 0.00 0.00 0.00 0.00 0.01 0.01 0.01 0.01 0.01 0.02 0.02 0.02 0.02 0.02 0.02
0.01 0.01 0.01 0.02 0.02 0.02 0.02 0.02 0.02 0.01 0.01 0.01 0.01 0.01 0.01 0.01 0.01 0.00 0.00 0.00 0.00 0.00 0.00 0.00 0.00 0.00 0.00 0.01 0.00 0.00 0.00 0.01 0.01 0.01 0.01 0.01 0.01 0.01 0.01 0.02 0.02 0.02 0.02 0.02
0.01 0.01 0.01 0.01 0.02 0.02 0.02 0.02 0.01 0.01 0.01 0.01 0.01 0.01 0.01 0.01 0.01 0.01 0.01 0.00 0.00 0.00 0.00 0.00 0.00 0.01 0.01 0.00 0.00 0.00 0.00 0.01 0.01 0.01 0.01 0.01 0.01 0.01 0.01 0.01 0.02 0.02 0.02 0.02
0.01 0.01 0.02 0.02 0.02 0.02 0.02 0.01 0.01 0.01 0.01 0.01 0.01 0.01 0.01 0.01 0.00 0.00 0.00 0.00 0.00 0.00 0.00 0.00 0.01 0.01 0.01 0.00 0.00 0.00 0.00 0.00 0.01 0.01 0.01 0.01 0.01 0.01 0.02 0.01 0.02 0.02 0.02 0.02
0.01 0.01 0.02 0.02 0.02 0.01 0.01 0.01 0.01 0.01 0.01 0.01 0.01 0.01 0.01 0.01 0.00 0.00 0.00 0.00 0.00 0.00 0.00 0.00 0.00 0.01 0.00 0.00 0.00 0.00 0.00 0.01 0.01 0.01 0.01 0.01 0.01 0.01 0.01 0.01 0.01 0.01 0.01 0.01
0.01 0.01 0.01 0.01 0.01 0.01 0.01 0.01 0.01 0.01 0.00 0.00 0.00 0.00 0.01 0.00 0.00 0.00 0.00 0.00 0.00 0.00 0.00 0.00 0.00 0.00 0.00 0.00 0.00 0.00 0.01 0.01 0.01 0.01 0.01 0.01 0.01 0.01 0.01 0.01 0.01 0.01 0.01 0.01
0.00 0.01 0.01 0.01 0.01 0.01 0.01 0.01 0.01 0.00 0.00 0.00 0.00 0.00 0.00 0.00 0.00 0.00 0.00 0.00 0.00 0.00 0.00 0.00 0.00 0.00 0.00 0.00 0.00 0.00 0.00 0.01 0.01 0.01 0.01 0.01 0.01 0.01 0.01 0.01 0.01 0.01 0.01 0.01
MSLP
1013.30 1012.85 1012.38 1011.94 1011.56 1011.27 1011.06 1010.93 1010.86 1010.84 1010.82 1010.79 1010.74 1010.66 1010.56 1010.45 1010.36 1010.31 1010.32 1010.41 1010.60 1010.89 1011.27 1011.73 1012.24 1012.80 1013.37 1013.95 1014.51 1015.06 1015.58 1016.08 1016.57 1017.04 1017.51 1017.96 1018.40 1018.83 1019.21 1019.56 1019.86 1020.10 1020.29 1020.44
1013.52 1012.90 1012.26 1011.67 1011.16 1010.78 1010.53 1010.41 1010.39 1010.44 1010.52 1010.59 1010.63 1010.62 1010.55 1010.46 1010.35 1010.25 1010.21 1010.25 1010.40 1010.65 1011.01 1011.47 1012.01 1012.61 1013.23 1013.87 1014.49 1015.09 1015.67 1016.22 1016.74 1017.25 1017.74 1018.21 1018.65 1019.07 1019.45 1019.77 1020.05 1020.27 1020.43 1020.56
1013.65 1012.90 1012.15 1011.44 1010.84 1010.39 1010.11 1009.97 1009.98 1010.07 1010.20 1010.33 1010.43 1010.45 1010.41 1010.31 1010.18 1010.05 1009.98 1009.98 1010.09 1010.32 1010.68 1011.15 1011.71 1012.33 1012.99 1013.67 1014.34 1014.98 1015.60 1016.19 1016.75 1017.29 1017.81 1018.30 1018.77 1019.20 1019.59 1019.92 1020.20 1020.42 1020.58 1020.70
1013.72 1012.93 1012.11 1011.35 1010.70 1010.21 1009.89 1009.74 1009.74 1009.83 1009.98 1010.13 1010.23 1010.25 1010.21 1010.09 1009.95 1009.80 1009.70 1009.68 1009.77 1010.00 1010.35 1010.82 1011.39 1012.04 1012.72 1013.42 1014.11 1014.78 1015.42 1016.03 1016.63 1017.20 1017.75 1018.28 1018.78 1019.24 1019.66 1020.02 1020.32 1020.56 1020.73 1020.86
1013.85 1013.06 1012.25 1011.49 1010.83 1010.32 1009.99 1009.81 1009.78 1009.85 1009.97 1010.08 1010.15 1010.15 1010.08 1009.94 1009.77 1009.61 1009.49 1009.46 1009.55 1009.77 1010.12 1010.60 1011.16 1011.80 1012.48 1013.17 1013.86 1014.54 1015.19 1015.82 1016.43 1017.03 1017.61 1018.17 1018.71 1019.22 1019.67 1020.07 1020.40 1020.67 1020.87 1021.02
1014.12 1013.39 1012.64 1011.92 1011.29 1010.80 1010.45 1010.25 1010.18 1010.19 1010.24 1010.29 1010.29 1010.24 1010.11 1009.94 1009.75 1009.58 1009.46 1009.43 1009.52 1009.74 1010.08 1010.54 1011.09 1011.70 1012.35 1013.02 1013.68 1014.33 1014.97 1015.60 1016.22 1016.84 1017.45 1018.04 1018.62 1019.16 1019.65 1020.08 1020.44 1020.73 1020.95 1021.11
1014.59 1013.96 1013.30 1012.66 1012.09 1011.62 1011.27 1011.03 1010.90 1010.83 1010.79 1010.75 1010.67 1010.54 1010.36 1010.16 1009.94 1009.76 1009.64 1009.62 1009.72 1009.93 1010.26 1010.69 1011.20 1011.77 1012.37 1012.99 1013.60 1014.22 1014.83 1015.44 1016.06 1016.68 1017.30 1017.91 1018.51 1019.06 1019.57 1020.01 1020.39 1020.69 1020.92 1021.10
1015.27 1014.75 1014.19 1013.64 1013.13 1012.69 1012.33 1012.06 1011.85 1011.69 1011.55 1011.41 1011.23 1011.03 1010.79 1010.55 1010.33 1010.15 1010.05 1010.04 1010.14 1010.35 1010.66 1011.06 1011.52 1012.02 1012.55 1013.10 1013.65 1014.21 1014.78 1015.36 1015.96 1016.57 1017.18 1017.79 1018.38 1018.94 1019.43 1019.87 1020.23 1020.52 1020.75 1020.92
1016.07 1015.65 1015.19 1014.72 1014.26 1013.84 1013.47 1013.15 1012.87 1012.61 1012.37 1012.12 1011.86 1011.59 1011.32 1011.06 1010.85 1010.69 1010.62 1010.63 1010.75 1010.96 1011.24 1011.59 1011.99 1012.42 1012.87 1013.34 1013.81 1014.31 1014.82 1015.36 1015.92 1016.50 1017.10 1017.68 1018.25 1018.77 1019.24 1019.63 1019.96 1020.22 1020.43 1020.59
1016.89 1016.55 1016.15 1015.74 1015.31 1014.90 1014.49 1014.11 1013.75 1013.40 1013.06 1012.73 1012.40 1012.09 1011.81 1011.57 1011.38 1011.27 1011.25 1011.31 1011.45 1011.66 1011.92 1012.23 1012.57 1012.92 1013.28 1013.66 1014.05 1014.47 1014.92 1015.40 1015.92 1016.47 1017.02 1017.56 1018.08 1018.56 1018.97 1019.31 1019.59 1019.81 1019.98 1020.12
1017.58 1017.28 1016.92 1016.53 1016.11 1015.68 1015.23 1014.79 1014.35 1013.91 1013.50 1013.10 1012.74 1012.42 1012.16 1011.96 1011.84 1011.81 1011.85 1011.97 1012.15 1012.37 1012.63 1012.89 1013.17 1013.44 1013.72 1014.00 1014.31 1014.65 1015.03 1015.46 1015.92 1016.42 1016.92 1017.42 1017.88 1018.29 1018.64 1018.93 1019.15 1019.31 1019.44 1019.56
1018.04 1017.74 1017.40 1017.00 1016.57 1016.09 1015.60 1015.09 1014.58 1014.08 1013.61 1013.18 1012.82 1012.52 1012.31 1012.19 1012.16 1012.22 1012.36 1012.55 1012.78 1013.03 1013.28 1013.51 1013.73 1013.93 1014.12 1014.32 1014.54 1014.80 1015.11 1015.47 1015.88 1016.32 1016.77 1017.21 1017.62 1017.98 1018.27 1018.50 1018.66 1018.78 1018.88 1018.97
1018.23 1017.93 1017.57 1017.15 1016.68 1016.17 1015.61 1015.05 1014.48 1013.94 1013.44 1013.01 1012.67 1012.43 1012.30 1012.28 1012.36 1012.53 1012.76 1013.04 1013.33 1013.61 1013.85 1014.06 1014.22 1014.35 1014.47 1014.58 1014.72 1014.90 1015.14 1015.43 1015.78 1016.16 1016.56 1016.95 1017.31 1017.61 1017.86 1018.04 1018.17 1018.25 1018.33 1018.41
1018.19 1017.88 1017.51 1017.07 1016.56 1016.00 1015.41 1014.79 1014.19 1013.63 1013.13 1012.72 1012.42 1012.25 1012.21 1012.30 1012.49 1012.77 1013.10 1013.46 1013.80 1014.10 1014.35 1014.53 1014.64 1014.71 1014.74 1014.77 1014.83 1014.93 1015.09 1015.32 1015.60 1015.93 1016.28 1016.62 1016.93 1017.20 1017.42 1017.57 1017.67 1017.74 1017.80 1017.87
1018.02 1017.71 1017.33 1016.88 1016.35 1015.77 1015.15 1014.51 1013.90 1013.33 1012.85 1012.48 1012.24 1012.15 1012.19 1012.37 1012.66 1013.03 1013.44 1013.86 1014.24 1014.55 1014.79 1014.94 1015.00 1015.00 1014.97 1014.92 1014.90 1014.92 1015.00 1015.15 1015.37 1015.64 1015.93 1016.23 1016.51 1016.75 1016.94 1017.08 1017.17 1017.23 1017.29 1017.36
1017.83 1017.54 1017.18 1016.73 1016.22 1015.63 1015.01 1014.38 1013.78 1013.23 1012.78 1012.45 1012.27 1012.24 1012.36 1012.61 1012.97 1013.40 1013.86 1014.30 1014.69 1015.00 1015.22 1015.33 1015.34 1015.28 1015.17 1015.05 1014.94 1014.89 1014.89 1014.97 1015.12 1015.32 1015.55 1015.80 1016.04 1016.25 1016.42 1016.55 1016.64 1016.70 1016.76 1016.82
1017.71 1017.47 1017.15 1016.74 1016.26 1015.71 1015.12 1014.52 1013.95 1013.44 1013.03 1012.75 1012.61 1012.63 1012.79 1013.09 1013.47 1013.92 1014.39 1014.83 1015.20 1015.48 1015.65 1015.71 1015.67 1015.55 1015.38 1015.19 1015.01 1014.88 1014.80 1014.80 1014.87 1015.00 1015.16 1015.35 1015.55 1015.72 1015.86 1015.97 1016.05 1016.11 1016.16 1016.22
1017.70 1017.53 1017.28 1016.94 1016.52 1016.03 1015.50 1014.96 1014.45 1013.99 1013.63 1013.39 1013.29 1013.33 1013.51 1013.80 1014.17 1014.60 1015.03 1015.43 1015.75 1015.99 1016.10 1016.11 1016.02 1015.84 1015.61 1015.36 1015.12 1014.91 1014.77 1014.68 1014.67 1014.71 1014.80 1014.92 1015.04 1015.16 1015.26 1015.34 1015.40 1015.44 1015.48 1015.52
1017.80 1017.71 1017.55 1017.29 1016.96 1016.56 1016.11 1015.65 1015.20 1014.81 1014.50 1014.30 1014.22 1014.26 1014.43 1014.69 1015.01 1015.38 1015.75 1016.07 1016.33 1016.49 1016.55 1016.50 1016.36 1016.14 1015.87 1015.57 1015.28 1015.02 1014.80 1014.65 1014.55 1014.50 1014.50 1014.53 1014.57 1014.61 1014.65 1014.68 1014.70 1014.71 1014.72 1014.73
1017.96 1017.96 1017.87 1017.71 1017.47 1017.16 1016.80 1016.43 1016.07 1015.75 1015.50 1015.33 1015.26 1015.30 1015.43 1015.63 1015.89 1016.18 1016.45 1016.69 1016.86 1016.95 1016.95 1016.85 1016.67 1016.42 1016.13 1015.81 1015.49 1015.19 1014.92 1014.70 1014.52 1014.38 1014.29 1014.22 1014.17 1014.12 1014.08 1014.04 1014.00 1013.97 1013.93 1013.91
1018.11 1018.17 1018.16 1018.07 1017.92 1017.70 1017.45 1017.17 1016.90 1016.65 1016.45 1016.32 1016.27 1016.29 1016.38 1016.52 1016.70 1016.89 1017.07 1017.21 1017.30 1017.32 1017.26 1017.13 1016.93 1016.67 1016.37 1016.05 1015.72 1015.40 1015.10 1014.83 1014.59 1014.38 1014.19 1014.02 1013.87 1013.74 1013.61 1013.49 1013.38 1013.28 1013.19 1013.12
1018.20 1018.30 1018.33 1018.31 1018.22 1018.08 1017.91 1017.72 1017.54 1017.37 1017.23 1017.14 1017.10 1017.11 1017.16 1017.24 1017.35 1017.45 1017.54 1017.60 1017.61 1017.57 1017.47 1017.31 1017.11 1016.86 1016.58 1016.28 1015.96 1015.65 1015.34 1015.04 1014.75 1014.48 1014.22 1013.97 1013.73 1013.50 1013.28 1013.08 1012.90 1012.74 1012.59 1012.47
1018.21 1018.30 1018.35 1018.36 1018.31 1018.24 1018.14 1018.03 1017.92 1017.82 1017.75 1017.70 1017.68 1017.69 1017.72 1017.76 1017.80 1017.83 1017.84 1017.83 1017.78 1017.69 1017.56 1017.40 1017.20 1016.98 1016.73 1016.46 1016.18 1015.89 1015.60 1015.29 1014.99 1014.68 1014.36 1014.05 1013.74 1013.43 1013.14 1012.87 1012.62 1012.39 1012.18 1012.00
1018.14 1018.20 1018.24 1018.24 1018.22 1018.18 1018.13 1018.08 1018.04 1018.01 1018.00 1018.00 1018.01 1018.03 1018.05 1018.06 1018.06 1018.04 1017.99 1017.92 1017.83 1017.71 1017.56 1017.40 1017.22 1017.03 1016.82 1016.60 1016.37 1016.12 1015.85 1015.57 1015.26 1014.94 1014.60 1014.25 1013.89 1013.53 1013.19 1012.85 1012.54 1012.25 1011.99 1011.76
1018.02 1018.04 1018.03 1018.01 1017.98 1017.96 1017.94 1017.94 1017.95 1017.99 1018.03 1018.08 1018.13 1018.17 1018.19 1018.19 1018.17 1018.12 1018.04 1017.93 1017.80 1017.66 1017.51 1017.35 1017.19 1017.03 1016.87 1016.69 1016.51 1016.31 1016.08 1015.83 1015.55 1015.23 1014.89 1014.52 1014.14 1013.75 1013.37 1012.99 1012.63 1012.29 1011.99 1011.70
1017.90 1017.85 1017.79 1017.73 1017.68 1017.65 1017.66 1017.69 1017.75 1017.83 1017.92 1018.02 1018.11 1018.18 1018.22 1018.22 1018.19 1018.12 1018.02 1017.90 1017.75 1017.60 1017.44 1017.29 1017.14 1017.01 1016.87 1016.74 1016.60 1016.44 1016.26 1016.04 1015.79 1015.50 1015.16 1014.80 1014.42 1014.01 1013.60 1013.20 1012.81 1012.43 1012.08 1011.75
1017.79 1017.67 1017.56 1017.46 1017.38 1017.35 1017.36 1017.42 1017.51 1017.63 1017.76 1017.90 1018.03 1018.13 1018.19 1018.22 1018.19 1018.12 1018.01 1017.88 1017.72 1017.55 1017.39 1017.24 1017.10 1016.98 1016.86 1016.75 1016.64 1016.51 1016.36 1016.17 1015.94 1015.67 1015.36 1015.01 1014.63 1014.22 1013.80 1013.38 1012.96 1012.55 1012.15 1011.78
Thickness
5488 5498 5499 5498 5500 5502 5499 5501 5502 5515 5523 5531 5535 5539 5542 5546 5550 5553 5554 5558 5560 5560 5560 5561 5560 5560 5559 5558 5557 5556 5554 5552 5551 5549 5546 5544 5542 5540 5539 5538 5537 5535 5534 5533
5482 5496 5497 5496 5500 5501 5502 5504 5505 5510 5517 5528 5531 5534 5537 5540 5544 5546 5548 5551 5554 5555 5555 5555 5555 5554 5552 5550 5548 5547 5544 5542 5540 5537 5535 5532 5530 5528 5527 5525 5524 5523 5522 5521
5476 5491 5491 5488 5500 5502 5502 5506 5506 5506 5514 5521 5523 5528 5532 5536 5539 5541 5544 5547 5549 5550 5551 5551 5550 5549 5546 5543 5541 5538 5535 5533 5530 5527 5524 5521 5520 5517 5515 5513 5512 5511 5510 5508
5467 5476 5473 5493 5505 5506 5505 5507 5508 5510 5514 5517 5520 5524 5527 5531 5533 5536 5539 5542 5544 5545 5547 5547 5546 5543 5540 5536 5532 5529 5526 5523 5521 5518 5514 5512 5509 5506 5504 5502 5500 5499 5497 5496
5463 5469 5480 5493 5497 5498 5498 5499 5503 5505 5509 5513 5517 5519 5519 5523 5526 5529 5532 5535 5537 5539 5541 5541 5539 5537 5533 5528 5524 5521 5518 5515 5513 5509 5506 5502 5499 5496 5494 5491 5489 5487 5486 5484
5459 5466 5473 5478 5487 5493 5493 5488 5491 5497 5501 5505 5508 5505 5508 5513 5516 5519 5522 5525 5528 5530 5531 5531 5530 5528 5524 5520 5516 5513 5511 5508 5505 5501 5498 5493 5490 5487 5484 5481 5478 5477 5475 5473
5456 5462 5469 5469 5479 5486 5479 5474 5481 5486 5490 5494 5495 5494 5498 5504 5506 5508 5511 5514 5518 5520 5520 5520 5520 5518 5514 5512 5509 5507 5504 5500 5496 5493 5489 5485 5481 5478 5475 5472 5469 5466 5464 5463
5453 5457 5458 5462 5468 5465 5463 5469 5473 5476 5480 5483 5486 5490 5493 5495 5496 5498 5500 5503 5505 5506 5506 5507 5508 5507 5504 5502 5500 5498 5495 5491 5487 5484 5480 5477 5473 5469 5466 5463 5460 5457 5455 5453
5443 5447 5452 5455 5454 5456 5458 5460 5463 5467 5471 5475 5479 5481 5483 5485 5486 5488 5490 5492 5493 5493 5494 5495 5496 5496 5493 5491 5490 5488 5484 5481 5478 5475 5471 5468 5465 5461 5458 5455 5453 5450 5447 5445
5440 5449 5450 5451 5449 5450 5451 5452 5456 5459 5462 5466 5470 5472 5474 5475 5476 5477 5479 5480 5482 5483 5482 5482 5483 5484 5483 5482 5480 5478 5475 5472 5469 5466 5463 5460 5457 5454 5451 5449 5446 5444 5441 5439
5434 5439 5442 5445 5441 5440 5443 5446 5449 5452 5455 5457 5460 5463 5464 5465 5466 5467 5468 5469 5471 5472 5472 5472 5473 5473 5473 5472 5471 5468 5466 5464 5461 5458 5455 5453 5450 5448 5446 5445 5442 5440 5437 5435
5421 5423 5422 5428 5431 5433 5435 5438 5441 5444 5447 5449 5452 5454 5455 5456 5457 5458 5459 5459 5460 5462 5462 5462 5463 5463 5462 5462 5461 5460 5458 5456 5453 5451 5448 5446 5443 5441 5440 5438 5437 5435 5433 5431
5416 5417 5417 5421 5424 5425 5427 5430 5433 5435 5438 5440 5443 5445 5446 5447 5448 5449 5450 5450 5450 5451 5452 5453 5454 5453 5453 5453 5453 5452 5450 5448 5446 5444 5442 5440 5437 5435 5432 5431 5430 5429 5428 5427
5411 5409 5412 5414 5414 5416 5418 5421 5425 5428 5430 5433 5434 5436 5437 5438 5439 5439 5439 5440 5440 5441 5442 5443 5444 5443 5444 5444 5444 5443 5442 5441 5439 5437 5435 5434 5432 5429 5427 5425 5424 5423 5423 5422
5403 5401 5402 5404 5407 5408 5410 5413 5416 5418 5421 5423 5425 5426 5428 5429 5428 5429 5429 5430 5431 5432 5432 5433 5433 5433 5433 5434 5434 5434 5433 5433 5431 5430 5428 5427 5425 5423 5421 5420 5419 5418 5417 5416
5396 5396 5397 5396 5397 5399 5401 5404 5407 5410 5411 5413 5414 5415 5417 5418 5419 5419 5420 5421 5421 5421 5421 5422 5422 5422 5424 5425 5425 5425 5425 5425 5424 5422 5421 5419 5418 5416 5415 5414 5414 5413 5412 5411
5387 5389 5388 5387 5387 5389 5391 5394 5397 5400 5402 5403 5404 5405 5407 5409 5409 5409 5409 5410 5411 5411 5411 5411 5412 5413 5414 5415 5416 5416 5416 5417 5417 5415 5414 5413 5412 5411 5410 5409 5408 5407 5407 5406
5382 5380 5379 5377 5377 5379 5382 5384 5387 5389 5390 5392 5394 5395 5397 5398 5398 5399 5399 5400 5401 5402 5402 5402 5402 5404 5405 5406 5406 5407 5407 5407 5407 5407 5406 5406 5405 5404 5403 5402 5402 5401 5401 5399
5378 5376 5373 5372 5371 5371 5372 5374 5375 5377 5379 5381 5382 5384 5385 5386 5387 5388 5390 5391 5391 5391 5391 5392 5394 5395 5396 5396 5397 5398 5398 5398 5399 5399 5399 5399 5398 5397 5397 5396 5395 5395 5394 5393
5372 5370 5367 5365 5363 5362 5362 5363 5365 5366 5368 5370 5372 5373 5374 5375 5376 5378 5379 5380 5379 5380 5381 5383 5384 5385 5386 5387 5388 5388 5389 5390 5390 5391 5391 5391 5391 5391 5390 5389 5389 5388 5388 5387
5365 5362 5360 5357 5356 5355 5354 5355 5356 5357 5359 5360 5361 5362 5363 5365 5366 5367 5369 5370 5370 5371 5372 5374 5375 5376 5377 5378 5380 5380 5380 5381 5382 5382 5382 5383 5383 5383 5383 5382 5382 5381 5381 5380
5357 5355 5353 5351 5349 5348 5347 5347 5348 5349 5350 5351 5351 5352 5354 5355 5357 5358 5359 5359 5360 5362 5363 5364 5365 5367 5368 5370 5370 5371 5372 5372 5373 5373 5374 5374 5374 5374 5374 5374 5373 5373 5373 5372
5349 5347 5345 5344 5342 5341 5341 5340 5341 5341 5342 5342 5343 5343 5344 5345 5347 5348 5349 5350 5351 5353 5353 5354 5356 5359 5360 5361 5361 5362 5362 5363 5363 5364 5364 5364 5365 5365 5365 5365 5365 5365 5364 5364
5341 5339 5338 5336 5334 5334 5334 5334 5334 5334 5334 5335 5335 5336 5336 5337 5338 5339 5339 5341 5342 5344 5344 5345 5348 5350 5351 5351 5351 5352 5353 5353 5354 5354 5354 5355 5355 5355 5355 5355 5355 5355 5355 5354
5333 5331 5330 5328 5327 5327 5327 5327 5327 5327 5327 5327 5328 5328 5328 5328 5328 5330 5330 5331 5333 5334 5335 5336 5338 5340 5340 5340 5341 5342 5343 5343 5344 5344 5345 5345 5345 5345 5346 5346 5346 5346 5346 5345
5325 5324 5323 5322 5321 5320 5320 5319 5319 5319 5320 5320 5321 5321 5321 5321 5321 5321 5322 5323 5324 5325 5326 5327 5328 5329 5330 5331 5331 5332 5333 5333 5334 5334 5334 5335 5335 5335 5336 5336 5336 5336 5336 5336
5318 5316 5315 5314 5314 5313 5312 5312 5311 5312 5312 5312 5313 5313 5313 5313 5313 5313 5314 5315 5316 5316 5317 5318 5319 5320 5321 5322 5322 5323 5323 5324 5324 5324 5325 5325 5325 5326 5326 5326 5326 5326 5326 5326